Starlink 4053

operational
NORAD ID: 53536 Int'l Des: 2022-101 Owner: SPXS Country: US Constellation: starlink
LEOCIRCULAR

About Starlink 4053

Description loading...

Live Position

Loading 3D Globe...

Upcoming Passes

Altitude History

Altitude vs Time

uPlot chart will show altitude changes over time

Two-Line Element Set

1 53536U 22101K 25312.81505308 .00001861 00000-0 13497-3 0 9994
2 53536 53.2170 246.6711 0001167 93.0984 267.0142 15.08835695178050
Epoch: Nov 8, 2025 • Age: 58 hours

Current Status

Altitude 540.3 km
Velocity 7.60 km/s
Sub-Earth Point 26.34°N, 97.95°W
Launch Date Aug 19, 2022
Age 3.2 years
Type internet

Technical Details

Classification Payload
Mass 300.00 kg
Dry Mass 290.00 kg
Total Mass 300.00 kg
Length 0.20 m
Diameter 2.80 m
Span 9.00 m
Shape Box + pan
Manufacturer SPXS
Bus Type Starlink
Phase Status In Orbit
Owner/State SPXS/US

Large Constellations

Loading constellations...